VYA605 PACD-CYQG

Flight info

Callsign VYA605
Flight time N/A
Altitude 39000
Route WETSI2 BINAL J115 TED J511 GKN Q811 YXY/N0452F370 J515 YYE J513 YMM Q963 TULAG/N0468F390 Q963 YVC Q919 OMVEG Q906 AGLIN DCT ZOHAN DCT ZOHAN/N0452F400 DCT OREYO RRALF3
Aircraft CL60/M-SADE3FGHIJ3J4J7P2RWXY/HB1D1

Departure

Time 2026-04-24 14:30
Airport Cold Bay Airport (PACD)

Arrival

Time N/A
Airport Windsor International Airport (CYQG)
Time Latitude Longitude Altitude Speed Heading
2026-04-24 13:43 55.20760 -162.72403 79 ft 0 kts 146°
2026-04-24 14:06 55.20764 -162.72386 78 ft 2 kts 353°
2026-04-24 14:07 55.20772 -162.72397 78 ft 0 kts 303°
2026-04-24 14:22 55.20775 -162.72403 78 ft 0 kts 302°
2026-04-24 14:26 55.20775 -162.72406 79 ft 2 kts 302°
2026-04-24 14:26 55.20791 -162.72496 82 ft 10 kts 249°
2026-04-24 14:26 55.20762 -162.72621 85 ft 6 kts 246°
2026-04-24 14:27 55.20742 -162.72711 85 ft 10 kts 260°
2026-04-24 14:27 55.20793 -162.72801 85 ft 14 kts 339°
2026-04-24 14:27 55.20917 -162.72887 86 ft 24 kts 339°
2026-04-24 14:27 55.21085 -162.72998 86 ft 27 kts 338°
2026-04-24 14:28 55.21267 -162.73126 82 ft 29 kts 337°
2026-04-24 14:28 55.21469 -162.73268 75 ft 32 kts 338°
2026-04-24 14:28 55.21692 -162.73428 67 ft 36 kts 338°
2026-04-24 14:28 55.21933 -162.73592 62 ft 37 kts 337°
2026-04-24 14:29 55.22105 -162.73726 62 ft 18 kts 319°
2026-04-24 14:29 55.22200 -162.73854 60 ft 13 kts 15°
2026-04-24 14:29 55.22195 -162.73769 62 ft 0 kts 156°
2026-04-24 14:29 55.22182 -162.73759 62 ft 14 kts 158°
2026-04-24 14:30 55.21858 -162.73531 63 ft 88 kts 159°
2026-04-24 14:30 55.21073 -162.72989 125 ft 145 kts 157°
2026-04-24 14:30 55.20090 -162.72282 652 ft 161 kts 156°
2026-04-24 14:30 55.19176 -162.71126 1357 ft 174 kts 122°
2026-04-24 14:31 55.19024 -162.69012 2227 ft 190 kts 72°
2026-04-24 14:31 55.19871 -162.67213 3008 ft 209 kts 29°
2026-04-24 14:31 55.21417 -162.66693 3240 ft 249 kts 349°
2026-04-24 14:31 55.23152 -162.67352 4044 ft 265 kts 343°
2026-04-24 14:32 55.24978 -162.68155 5021 ft 275 kts 343°
2026-04-24 14:32 55.26826 -162.68968 6087 ft 280 kts 344°
2026-04-24 14:32 55.28745 -162.69748 7169 ft 286 kts 351°
2026-04-24 14:32 55.30719 -162.69673 8207 ft 292 kts 11°
2026-04-24 14:33 55.32594 -162.68329 9178 ft 297 kts 36°
2026-04-24 14:33 55.34185 -162.66014 10116 ft 303 kts 43°
2026-04-24 14:33 55.35858 -162.63423 10330 ft 336 kts 42°
2026-04-24 14:33 55.37666 -162.60638 10784 ft 357 kts 42°
2026-04-24 14:34 55.39566 -162.57716 11577 ft 365 kts 43°
2026-04-24 14:34 55.41476 -162.54765 12446 ft 370 kts 43°
2026-04-24 14:34 55.43402 -162.51785 13330 ft 374 kts 43°
2026-04-24 14:34 55.45375 -162.48729 14185 ft 377 kts 43°
2026-04-24 14:35 55.47351 -162.45668 15006 ft 381 kts 43°
2026-04-24 14:35 55.49344 -162.42575 15756 ft 385 kts 43°
2026-04-24 14:35 55.51351 -162.39456 16489 ft 389 kts 43°
2026-04-24 14:35 55.53386 -162.36293 17181 ft 393 kts 43°
2026-04-24 14:36 55.55471 -162.33046 17884 ft 397 kts 44°
2026-04-24 14:36 55.57525 -162.29843 18548 ft 400 kts 44°
2026-04-24 14:36 55.59624 -162.26567 19204 ft 404 kts 44°
2026-04-24 14:36 55.61733 -162.23270 19825 ft 407 kts 44°
2026-04-24 14:37 55.63865 -162.19931 20441 ft 410 kts 44°
2026-04-24 14:37 55.66007 -162.16573 21005 ft 414 kts 44°
2026-04-24 14:37 55.68157 -162.13199 21548 ft 417 kts 44°
2026-04-24 14:37 55.70341 -162.09764 22079 ft 421 kts 44°
2026-04-24 14:38 55.72532 -162.06314 22570 ft 424 kts 44°
2026-04-24 14:38 55.74742 -162.02829 23062 ft 428 kts 44°
2026-04-24 14:38 55.76975 -161.99303 23564 ft 430 kts 44°
2026-04-24 14:38 55.79209 -161.95763 24017 ft 433 kts 45°
2026-04-24 14:39 55.81468 -161.92178 24459 ft 436 kts 45°
2026-04-24 14:39 55.83711 -161.88611 24867 ft 440 kts 45°
2026-04-24 14:39 55.86018 -161.84938 25287 ft 442 kts 45°
2026-04-24 14:39 55.88305 -161.81293 25661 ft 445 kts 45°
2026-04-24 14:40 55.90600 -161.77626 26065 ft 446 kts 45°
2026-04-24 14:40 55.92913 -161.73927 26422 ft 449 kts 45°
2026-04-24 14:40 55.95231 -161.70210 26746 ft 452 kts 45°
2026-04-24 14:40 55.97561 -161.66470 27058 ft 454 kts 45°
2026-04-24 14:41 55.99897 -161.62715 27384 ft 456 kts 45°
2026-04-24 14:41 56.02263 -161.58903 27677 ft 459 kts 45°
2026-04-24 14:41 56.04628 -161.55089 27945 ft 461 kts 45°
2026-04-24 14:41 56.07008 -161.51242 28205 ft 463 kts 45°
2026-04-24 14:42 56.09417 -161.47342 28450 ft 465 kts 45°
2026-04-24 14:42 56.11833 -161.43425 28706 ft 467 kts 45°
2026-04-24 14:42 56.14213 -161.39558 28928 ft 469 kts 45°
2026-04-24 14:42 56.16651 -161.35591 29153 ft 470 kts 45°
2026-04-24 14:43 56.19019 -161.31731 29358 ft 471 kts 46°
2026-04-24 14:43 56.21447 -161.27765 29545 ft 473 kts 46°
2026-04-24 14:43 56.23877 -161.23789 29724 ft 475 kts 46°
2026-04-24 14:43 56.26332 -161.19766 29906 ft 476 kts 46°
2026-04-24 14:44 56.28789 -161.15732 30059 ft 478 kts 46°
2026-04-24 14:44 56.31270 -161.11650 30231 ft 480 kts 46°
2026-04-24 14:44 56.33743 -161.07575 30381 ft 481 kts 46°
2026-04-24 14:44 56.36225 -161.03476 30529 ft 482 kts 46°
2026-04-24 14:45 56.38709 -160.99367 30679 ft 483 kts 46°
2026-04-24 14:45 56.43696 -160.91097 30882 ft 486 kts 46°
2026-04-24 14:45 56.46175 -160.86972 30993 ft 487 kts 46°
2026-04-24 14:46 56.48679 -160.82799 31105 ft 488 kts 46°
2026-04-24 14:46 56.53685 -160.74435 31277 ft 490 kts 46°
2026-04-24 14:47 56.58702 -160.66019 31434 ft 492 kts 46°
2026-04-24 14:47 56.63748 -160.57523 31607 ft 493 kts 46°
2026-04-24 14:48 56.68789 -160.49002 31733 ft 496 kts 46°
2026-04-24 14:48 56.73866 -160.40389 31895 ft 497 kts 46°
2026-04-24 14:48 56.76393 -160.36087 32001 ft 496 kts 46°
2026-04-24 14:49 56.78910 -160.31796 32117 ft 496 kts 47°
2026-04-24 14:49 56.81429 -160.27499 32236 ft 495 kts 47°
2026-04-24 14:49 56.83932 -160.23227 32348 ft 495 kts 47°
2026-04-24 14:49 56.86449 -160.18919 32454 ft 495 kts 47°
2026-04-24 14:50 56.88978 -160.14586 32550 ft 495 kts 47°
2026-04-24 14:50 56.94006 -160.05942 32718 ft 495 kts 47°
2026-04-24 14:51 56.99027 -159.97275 32884 ft 496 kts 47°
2026-04-24 14:51 57.04074 -159.88531 33083 ft 496 kts 47°
2026-04-24 14:52 57.09067 -159.79846 33277 ft 496 kts 47°
2026-04-24 14:52 57.14057 -159.71132 33470 ft 495 kts 47°
2026-04-24 14:53 57.19077 -159.62332 33599 ft 496 kts 47°
2026-04-24 14:53 57.24038 -159.53601 33737 ft 496 kts 47°
2026-04-24 14:54 57.29036 -159.44771 33905 ft 496 kts 47°
2026-04-24 14:54 57.34019 -159.35931 34053 ft 496 kts 47°
2026-04-24 14:55 57.38905 -159.27231 34232 ft 495 kts 48°
2026-04-24 14:55 57.43877 -159.18343 34389 ft 495 kts 48°
2026-04-24 14:56 57.48839 -159.09436 34593 ft 494 kts 48°
2026-04-24 14:56 57.53813 -159.00472 34721 ft 493 kts 48°
2026-04-24 14:56 57.56222 -158.96124 34549 ft 483 kts 49°
2026-04-24 14:57 57.58629 -158.91768 33934 ft 483 kts 49°
2026-04-24 14:57 57.61052 -158.87369 33148 ft 486 kts 49°
2026-04-24 14:57 57.63463 -158.82982 32239 ft 490 kts 49°
2026-04-24 14:57 57.65899 -158.78542 31336 ft 491 kts 50°
2026-04-24 14:58 57.68316 -158.74130 30362 ft 491 kts 50°
2026-04-24 14:58 57.70768 -158.69649 29313 ft 487 kts 50°
2026-04-24 14:58 57.73154 -158.65282 28396 ft 481 kts 50°
2026-04-24 14:58 57.75494 -158.60989 27517 ft 474 kts 49°
2026-04-24 14:59 57.77845 -158.56670 26684 ft 466 kts 49°
2026-04-24 14:59 57.80116 -158.52487 25842 ft 459 kts 49°
2026-04-24 14:59 57.82362 -158.48346 25026 ft 452 kts 49°
2026-04-24 14:59 57.84580 -158.44243 23960 ft 450 kts 48°
2026-04-24 15:00 57.86805 -158.40117 22837 ft 448 kts 48°
2026-04-24 15:00 57.88994 -158.36053 21765 ft 444 kts 48°
2026-04-24 15:00 57.91177 -158.31993 20472 ft 445 kts 49°
2026-04-24 15:00 57.93359 -158.27924 19230 ft 443 kts 49°
2026-04-24 15:01 57.95537 -158.23859 18118 ft 438 kts 48°
2026-04-24 15:01 57.97667 -158.19875 17015 ft 433 kts 48°
2026-04-24 15:01 57.99774 -158.15924 15930 ft 428 kts 47°
2026-04-24 15:01 58.01870 -158.11986 14856 ft 422 kts 47°
2026-04-24 15:02 58.03909 -158.08150 13812 ft 416 kts 47°
2026-04-24 15:02 58.05918 -158.04361 12842 ft 406 kts 47°
2026-04-24 15:02 58.07913 -158.00597 11819 ft 398 kts 47°
2026-04-24 15:02 58.09840 -157.96953 10791 ft 391 kts 47°
2026-04-24 15:03 58.11718 -157.93398 10102 ft 382 kts 47°